Time,TemperatureF,DewpointF,PressureIn,WindDirection,WindDirectionDegrees,WindSpeedMPH,WindSpeedGustMPH,Humidity,HourlyPrecipIn,Conditions,Clouds,dailyrainin,SoftwareType,DateUTC
2013-05-02 00:08:00,65.8,62.0,29.94,East,98,5.0,5.0,87,0.00,,,0.00,weatherlink.com 1.10,2013-05-02 05:08:00,
2013-05-02 00:23:00,66.0,62.0,29.94,SSE,156,2.0,7.0,87,0.00,,,0.00,weatherlink.com 1.10,2013-05-02 05:23:00,
2013-05-02 00:38:00,66.4,63.0,29.94,East,100,2.0,4.0,87,0.00,,,0.00,weatherlink.com 1.10,2013-05-02 05:38:00,
2013-05-02 00:53:00,66.7,62.0,29.95,SSE,160,0.0,3.0,86,0.00,,,0.00,weatherlink.com 1.10,2013-05-02 05:53:00,
2013-05-02 01:08:00,66.7,62.0,29.95,NNW,346,0.0,3.0,86,0.00,,,0.00,weatherlink.com 1.10,2013-05-02 06:08:00,
2013-05-02 01:23:00,66.5,62.0,29.96,SSW,207,0.0,3.0,86,0.00,,,0.00,weatherlink.com 1.10,2013-05-02 06:23:00,
2013-05-02 01:38:00,66.4,63.0,29.97,ENE,77,1.0,1.0,87,0.00,,,0.00,weatherlink.com 1.10,2013-05-02 06:38:00,
2013-05-02 01:53:00,66.5,63.0,29.97,ENE,73,0.0,4.0,87,0.00,,,0.00,weatherlink.com 1.10,2013-05-02 06:53:00,
2013-05-02 02:08:00,66.6,62.0,29.97,SSE,159,0.0,5.0,86,0.00,,,0.00,weatherlink.com 1.10,2013-05-02 07:08:00,
2013-05-02 02:23:00,66.6,63.0,29.97,NE,53,5.0,6.0,87,0.00,,,0.00,weatherlink.com 1.10,2013-05-02 07:23:00,
2013-05-02 02:38:00,66.6,63.0,29.97,ENE,77,0.0,3.0,87,0.00,,,0.00,weatherlink.com 1.10,2013-05-02 07:38:00,
2013-05-02 02:53:00,66.6,63.0,29.97,ENE,57,1.0,2.0,87,0.00,,,0.00,weatherlink.com 1.10,2013-05-02 07:53:00,
2013-05-02 03:08:00,66.6,63.0,29.97,ENE,63,1.0,3.0,87,0.00,,,0.00,weatherlink.com 1.10,2013-05-02 08:08:00,
2013-05-02 03:23:00,66.6,63.0,29.96,NE,56,3.0,4.0,87,0.00,,,0.00,weatherlink.com 1.10,2013-05-02 08:23:00,
2013-05-02 03:38:00,66.6,63.0,29.96,NNE,19,3.0,5.0,87,0.00,,,0.00,weatherlink.com 1.10,2013-05-02 08:38:00,
2013-05-02 03:53:00,66.5,63.0,29.96,ENE,63,1.0,5.0,87,0.00,,,0.00,weatherlink.com 1.10,2013-05-02 08:53:00,
2013-05-02 04:23:00,66.4,63.0,29.98,East,84,2.0,4.0,87,0.00,,,0.00,weatherlink.com 1.10,2013-05-02 09:23:00,
2013-05-02 04:38:00,66.4,63.0,29.98,ENE,73,2.0,4.0,88,0.00,,,0.00,weatherlink.com 1.10,2013-05-02 09:38:00,
2013-05-02 04:54:00,66.2,63.0,29.98,NNE,25,1.0,2.0,88,0.00,,,0.00,weatherlink.com 1.10,2013-05-02 09:54:00,
2013-05-02 05:08:00,66.2,63.0,29.99,NNE,32,0.0,2.0,88,0.00,,,0.00,weatherlink.com 1.10,2013-05-02 10:08:00,
2013-05-02 05:23:00,66.1,63.0,29.99,NNE,13,2.0,4.0,89,0.00,,,0.00,weatherlink.com 1.10,2013-05-02 10:23:00,
2013-05-02 05:39:00,65.9,63.0,30.00,NNE,20,1.0,4.0,89,0.00,,,0.00,weatherlink.com 1.10,2013-05-02 10:39:00,
2013-05-02 05:54:00,65.8,63.0,30.00,ENE,76,1.0,5.0,89,0.00,,,0.00,weatherlink.com 1.10,2013-05-02 10:54:00,
2013-05-02 06:09:00,65.8,63.0,30.01,NNE,22,2.0,3.0,89,0.00,,,0.00,weatherlink.com 1.10,2013-05-02 11:09:00,
2013-05-02 06:39:00,64.9,63.0,30.02,NNE,32,2.0,6.0,92,0.01,,,0.01,weatherlink.com 1.10,2013-05-02 11:39:00,
2013-05-02 06:54:00,64.4,62.0,30.03,North,359,2.0,4.0,93,0.02,,,0.02,weatherlink.com 1.10,2013-05-02 11:54:00,
2013-05-02 07:09:00,64.3,63.0,30.04,NNE,25,3.0,5.0,94,0.02,,,0.02,weatherlink.com 1.10,2013-05-02 12:09:00,
2013-05-02 07:24:00,58.9,56.0,30.05,North,5,7.0,20.0,91,0.02,,,0.02,weatherlink.com 1.10,2013-05-02 12:24:00,
2013-05-02 07:39:00,57.1,55.0,30.07,NNE,16,7.0,20.0,93,0.01,,,0.02,weatherlink.com 1.10,2013-05-02 12:39:00,
2013-05-02 07:54:00,55.5,54.0,30.08,North,11,8.0,13.0,93,0.00,,,0.02,weatherlink.com 1.10,2013-05-02 12:54:00,
2013-05-02 08:09:00,54.1,52.0,30.09,North,351,7.0,17.0,93,0.00,,,0.02,weatherlink.com 1.10,2013-05-02 13:09:00,
2013-05-02 08:25:00,53.0,51.0,30.10,North,354,7.0,19.0,92,0.00,,,0.02,weatherlink.com 1.10,2013-05-02 13:25:00,
2013-05-02 08:40:00,52.4,51.0,30.10,NNE,13,8.0,14.0,93,0.00,,,0.02,weatherlink.com 1.10,2013-05-02 13:40:00,
2013-05-02 08:55:00,52.4,51.0,30.11,North,350,4.0,14.0,93,0.00,,,0.02,weatherlink.com 1.10,2013-05-02 13:55:00,
2013-05-02 09:10:00,52.2,50.0,30.11,NNE,13,12.0,13.0,93,0.00,,,0.02,weatherlink.com 1.10,2013-05-02 14:10:00,
2013-05-02 09:25:00,52.4,50.0,30.12,North,356,7.0,18.0,92,0.00,,,0.02,weatherlink.com 1.10,2013-05-02 14:25:00,
2013-05-02 09:40:00,52.6,50.0,30.12,NNW,342,5.0,15.0,90,0.00,,,0.02,weatherlink.com 1.10,2013-05-02 14:40:00,
2013-05-02 09:55:00,53.0,50.0,30.12,NNE,23,8.0,13.0,89,0.00,,,0.02,weatherlink.com 1.10,2013-05-02 14:55:00,
2013-05-02 10:10:00,53.6,50.0,30.13,NNE,18,5.0,14.0,88,0.00,,,0.02,weatherlink.com 1.10,2013-05-02 15:10:00,
2013-05-02 10:25:00,54.5,51.0,30.13,NNE,16,11.0,16.0,87,0.00,,,0.02,weatherlink.com 1.10,2013-05-02 15:25:00,
2013-05-02 10:40:00,55.0,50.0,30.14,North,11,13.0,16.0,84,0.00,,,0.02,weatherlink.com 1.10,2013-05-02 15:40:00,
2013-05-02 10:55:00,55.4,50.0,30.14,North,350,15.0,16.0,83,0.00,,,0.02,weatherlink.com 1.10,2013-05-02 15:55:00,
2013-05-02 11:10:00,56.2,50.0,30.14,North,11,8.0,14.0,81,0.00,,,0.02,weatherlink.com 1.10,2013-05-02 16:10:00,
2013-05-02 11:25:00,57.0,51.0,30.14,NNE,23,9.0,17.0,79,0.00,,,0.02,weatherlink.com 1.10,2013-05-02 16:25:00,
2013-05-02 11:40:00,57.2,50.0,30.15,NNE,32,8.0,17.0,77,0.00,,,0.02,weatherlink.com 1.10,2013-05-02 16:40:00,
2013-05-02 11:55:00,57.0,50.0,30.16,NNE,24,11.0,18.0,78,0.00,,,0.02,weatherlink.com 1.10,2013-05-02 16:55:00,
2013-05-02 12:10:00,56.0,50.0,30.16,North,360,8.0,16.0,79,0.00,,,0.02,weatherlink.com 1.10,2013-05-02 17:10:00,
2013-05-02 12:25:00,55.9,50.0,30.16,North,349,11.0,16.0,79,0.00,,,0.02,weatherlink.com 1.10,2013-05-02 17:25:00,
2013-05-02 12:40:00,56.1,50.0,30.16,NNE,22,9.0,14.0,79,0.00,,,0.02,weatherlink.com 1.10,2013-05-02 17:40:00,
2013-05-02 12:55:00,56.5,50.0,30.16,NE,44,6.0,14.0,78,0.00,,,0.02,weatherlink.com 1.10,2013-05-02 17:55:00,
2013-05-02 13:10:00,56.0,50.0,30.17,NE,41,8.0,16.0,79,0.00,,,0.02,weatherlink.com 1.10,2013-05-02 18:10:00,
2013-05-02 13:25:00,55.4,49.0,30.17,North,11,10.0,16.0,78,0.00,,,0.02,weatherlink.com 1.10,2013-05-02 18:25:00,
2013-05-02 13:41:00,54.2,47.0,30.18,NNW,347,15.0,21.0,78,0.00,,,0.02,weatherlink.com 1.10,2013-05-02 18:41:00,
2013-05-02 13:55:00,53.6,47.0,30.18,North,349,6.0,18.0,79,0.00,,,0.02,weatherlink.com 1.10,2013-05-02 18:55:00,
2013-05-02 14:10:00,53.2,47.0,30.18,NNE,25,5.0,16.0,80,0.00,,,0.02,weatherlink.com 1.10,2013-05-02 19:10:00,
2013-05-02 14:25:00,52.9,47.0,30.18,NNE,17,17.0,17.0,79,0.00,,,0.02,weatherlink.com 1.10,2013-05-02 19:25:00,
2013-05-02 14:40:00,52.8,47.0,30.19,NE,37,5.0,19.0,81,0.00,,,0.02,weatherlink.com 1.10,2013-05-02 19:40:00,
2013-05-02 14:55:00,53.1,47.0,30.19,NE,36,8.0,15.0,80,0.00,,,0.02,weatherlink.com 1.10,2013-05-02 19:55:00,
2013-05-02 15:10:00,53.3,47.0,30.18,NNW,340,8.0,16.0,80,0.00,,,0.02,weatherlink.com 1.10,2013-05-02 20:10:00,
2013-05-02 15:25:00,52.9,48.0,30.19,North,11,5.0,19.0,82,0.00,,,0.02,weatherlink.com 1.10,2013-05-02 20:25:00,
2013-05-02 15:40:00,51.9,47.0,30.19,WNW,300,8.0,22.0,84,0.00,,,0.02,weatherlink.com 1.10,2013-05-02 20:40:00,
2013-05-02 15:55:00,51.4,47.0,30.19,NNE,16,7.0,18.0,85,0.00,,,0.02,weatherlink.com 1.10,2013-05-02 20:55:00,
2013-05-02 16:10:00,50.6,47.0,30.19,NNE,32,6.0,15.0,86,0.00,,,0.02,weatherlink.com 1.10,2013-05-02 21:10:00,
2013-05-02 16:25:00,50.3,46.0,30.19,NNE,12,7.0,17.0,84,0.00,,,0.02,weatherlink.com 1.10,2013-05-02 21:25:00,
2013-05-02 16:40:00,50.0,46.0,30.20,NW,321,6.0,17.0,86,0.00,,,0.02,weatherlink.com 1.10,2013-05-02 21:40:00,
2013-05-02 16:55:00,49.2,46.0,30.20,NNW,335,6.0,19.0,88,0.00,,,0.02,weatherlink.com 1.10,2013-05-02 21:55:00,
2013-05-02 17:10:00,48.2,45.0,30.21,North,354,6.0,16.0,88,0.00,,,0.02,weatherlink.com 1.10,2013-05-02 22:10:00,
2013-05-02 17:25:00,47.8,44.0,30.21,North,5,9.0,21.0,87,0.00,,,0.02,weatherlink.com 1.10,2013-05-02 22:25:00,
2013-05-02 17:40:00,47.3,44.0,30.21,NNE,26,13.0,19.0,87,0.00,,,0.02,weatherlink.com 1.10,2013-05-02 22:40:00,
2013-05-02 17:55:00,47.2,43.0,30.21,NNW,340,11.0,22.0,84,0.00,,,0.02,weatherlink.com 1.10,2013-05-02 22:55:00,
2013-05-02 18:10:00,47.0,42.0,30.21,NNE,18,12.0,25.0,83,0.00,,,0.02,weatherlink.com 1.10,2013-05-02 23:10:00,
2013-05-02 18:25:00,47.0,42.0,30.22,North,359,17.0,18.0,83,0.00,,,0.02,weatherlink.com 1.10,2013-05-02 23:25:00,
2013-05-02 18:41:00,46.7,42.0,30.22,NNW,329,6.0,14.0,84,0.00,,,0.02,weatherlink.com 1.10,2013-05-02 23:41:00,
2013-05-02 18:55:00,46.5,41.0,30.22,NW,326,8.0,23.0,82,0.00,,,0.02,weatherlink.com 1.10,2013-05-02 23:55:00,
2013-05-02 19:11:00,46.1,42.0,30.24,NNE,25,6.0,14.0,84,0.00,,,0.02,weatherlink.com 1.10,2013-05-03 00:11:00,
2013-05-02 19:26:00,45.6,41.0,30.24,NNW,345,8.0,18.0,85,0.00,,,0.02,weatherlink.com 1.10,2013-05-03 00:26:00,
2013-05-02 19:41:00,45.4,41.0,30.24,North,11,11.0,21.0,83,0.00,,,0.02,weatherlink.com 1.10,2013-05-03 00:41:00,
2013-05-02 19:56:00,45.1,41.0,30.24,ENE,57,14.0,21.0,84,0.00,,,0.02,weatherlink.com 1.10,2013-05-03 00:56:00,
2013-05-02 20:11:00,44.7,41.0,30.25,NE,49,9.0,22.0,87,0.00,,,0.02,weatherlink.com 1.10,2013-05-03 01:11:00,
2013-05-02 20:41:00,43.8,41.0,30.27,North,358,14.0,19.0,89,0.00,,,0.02,weatherlink.com 1.10,2013-05-03 01:41:00,
2013-05-02 20:56:00,43.7,41.0,30.27,NNE,16,10.0,13.0,89,0.00,,,0.02,weatherlink.com 1.10,2013-05-03 01:56:00,
2013-05-02 21:11:00,42.9,40.0,30.27,NNE,20,9.0,21.0,88,0.00,,,0.02,weatherlink.com 1.10,2013-05-03 02:11:00,
2013-05-02 21:27:00,42.4,39.0,30.28,NNE,19,11.0,19.0,89,0.00,,,0.02,weatherlink.com 1.10,2013-05-03 02:27:00,
2013-05-02 21:42:00,42.3,39.0,30.28,NNE,12,8.0,19.0,89,0.00,,,0.02,weatherlink.com 1.10,2013-05-03 02:42:00,
2013-05-02 21:57:00,42.2,39.0,30.28,NNW,330,14.0,23.0,89,0.00,,,0.02,weatherlink.com 1.10,2013-05-03 02:57:00,
2013-05-02 22:12:00,41.8,39.0,30.29,NNE,15,7.0,22.0,90,0.00,,,0.02,weatherlink.com 1.10,2013-05-03 03:12:00,
2013-05-02 22:27:00,41.5,39.0,30.28,NNW,333,9.0,21.0,91,0.00,,,0.02,weatherlink.com 1.10,2013-05-03 03:27:00,
2013-05-02 22:42:00,41.5,39.0,30.28,North,354,8.0,20.0,91,0.00,,,0.02,weatherlink.com 1.10,2013-05-03 03:42:00,
2013-05-02 22:57:00,41.4,39.0,30.28,ENE,67,10.0,19.0,92,0.00,,,0.02,weatherlink.com 1.10,2013-05-03 03:57:00,
2013-05-02 23:12:00,41.4,39.0,30.28,NNE,19,15.0,21.0,90,0.00,,,0.02,weatherlink.com 1.10,2013-05-03 04:12:00,
2013-05-02 23:27:00,41.4,39.0,30.27,North,4,11.0,17.0,90,0.00,,,0.02,weatherlink.com 1.10,2013-05-03 04:27:00,
2013-05-02 23:42:00,41.5,39.0,30.27,North,353,10.0,17.0,89,0.00,,,0.02,weatherlink.com 1.10,2013-05-03 04:42:00,
2013-05-02 23:57:00,41.8,38.0,30.27,NE,40,9.0,22.0,87,0.00,,,0.02,weatherlink.com 1.10,2013-05-03 04:57:00,